User: anonymous   Login
Location: Unspecified
(0.0000°N, 0.0000°E)
Time: 14:16:37
(UTC+00:00)
Language:

Cosmos 1743 - Orbit

View from above orbital plane
View from above orbital plane
View from above satellite
View from above satellite

Ground track
Ground track

The orbit data is extracted from the following two-line orbital elements,

1 16719U 86034A   18111.91733333 +.00001005 +00000-0 +51902-4 0  9996
2 16719 082.5542 049.4947 0010735 301.4322 122.1538 15.15138915742161
Epoch (UTC): 21 April 2018 22:00:57
Eccentricity: 0.0010735
inclination: 82.5542°
perigee height: 513 km
apogee height: 528 km
right ascension of ascending node: 49.4947°
argument of perigee: 301.4322°
revolutions per day: 15.15138915
mean anomaly at epoch: 122.1538°
orbit number at epoch: 74216

The dashed part of the orbit path shows where the satellite is in the earth's shadow,  

DLR